Montgomery, NY
on Saturday, December 9, 2017

Saturday
       
Previous Day Next Day
Daily Summary
 ActualAverage (KSWF)Record (KSWF)
Temperature
Mean Temperature °F °C °F °C  
Max Temperature 32°F 0°C 40°F 4°C 60°F 15°C (1980)
Min Temperature 27°F -3°C 24°F -4°C 3°F -16°C (2002)
Degree Days
Heating Degree Days 36    
Moisture
Dew Point 24°F -4°C   
Average Humidity 84    
Maximum Humidity 96    
Minimum Humidity 54    
Precipitation
Precipitation 0.18 in / 4.57 cm in / cm in / cm ()
Wind
Wind Speed 4 mph / 6 km/h   
Max Wind Speed 9 mph / 14 km/h   
Max Gust Speed mph / km/h   
Visibility 4 miles / 7 kilometers   
Events Fog , Snow   
Averages and records for this station are not official NWS values.
Key: T is trace of precipitation, MM is missing value
Source: NWS Daily Summary
Seasonal Weather Averages
Time(EST)TemperatureDew PointHumidity Pressure Visibility Wind DirectionWind SpeedGust SpeedPrecipitationEvents Conditions
12:54 AM 30.0°F -1.1°C 19.0°F -7.2°C 64% 29.94 in / 1013.7 hPa 10.0 miles / 16.1 kilometers South 5.8 mph / 9.3 km/h - N/A   Mostly Cloudy
1:54 AM 30.0°F -1.1°C 18.0°F -7.8°C 61% 29.95 in / 1014.0 hPa 10.0 miles / 16.1 kilometers SW 5.8 mph / 9.3 km/h - N/A   Mostly Cloudy
2:54 AM 30.0°F -1.1°C 18.0°F -7.8°C 61% 29.95 in / 1014.2 hPa 10.0 miles / 16.1 kilometers SW 3.5 mph / 5.6 km/h - N/A   Mostly Cloudy
3:54 AM 30.9°F -0.6°C 16.0°F -8.9°C 54% 29.95 in / 1014.2 hPa 10.0 miles / 16.1 kilometers Calm Calm - N/A   Overcast
4:54 AM 30.0°F -1.1°C 19.9°F -6.7°C 66% 29.94 in / 1013.6 hPa 10.0 miles / 16.1 kilometers Calm Calm - N/A   Overcast
5:54 AM 30.0°F -1.1°C 19.0°F -7.2°C 64% 29.95 in / 1014.0 hPa 10.0 miles / 16.1 kilometers Calm Calm - N/A   Overcast
6:54 AM 30.9°F -0.6°C 18.0°F -7.8°C 59% 29.96 in / 1014.5 hPa 10.0 miles / 16.1 kilometers NE 4.6 mph / 7.4 km/h - N/A   Overcast
7:54 AM 30.9°F -0.6°C 19.0°F -7.2°C 61% 29.96 in / 1014.5 hPa 10.0 miles / 16.1 kilometers Calm Calm - N/A   Overcast
8:54 AM 32.0°F 0.0°C 19.0°F -7.2°C 59% 29.94 in / 1013.7 hPa 10.0 miles / 16.1 kilometers NE 3.5 mph / 5.6 km/h - N/A   Overcast
9:54 AM 32.0°F 0.0°C 18.0°F -7.8°C 56% 29.91 in / 1012.9 hPa 10.0 miles / 16.1 kilometers NNE 6.9 mph / 11.1 km/h - N/A   Overcast
10:41 AM 30.9°F -0.6°C 21.9°F -5.6°C 69% 29.92 in / 1013.1 hPa 5.0 miles / 8.0 kilometers North 6.9 mph / 11.1 km/h - 0.00 in / 0.0 cm Snow Light Snow
10:49 AM 30.2°F -1.0°C 23.0°F -5.0°C 75% 29.92 in / 1013.1 hPa 1.8 miles / 2.8 kilometers NNW 5.8 mph / 9.3 km/h - 0.00 in / 0.0 cm Snow Light Snow
10:54 AM 30.0°F -1.1°C 24.1°F -4.4°C 79% 29.93 in / 1013.3 hPa 1.8 miles / 2.8 kilometers NNW 4.6 mph / 7.4 km/h - 0.00 in / 0.0 cm Snow Light Snow
11:21 AM 28.9°F -1.7°C 25.0°F -3.9°C 85% 29.88 in / 1011.7 hPa 1.0 miles / 1.6 kilometers North 5.8 mph / 9.3 km/h - 0.00 in / 0.0 cm Snow Light Snow
11:54 AM 28.9°F -1.7°C 25.0°F -3.9°C 85% 29.88 in / 1011.9 hPa 1.0 miles / 1.6 kilometers NNW 6.9 mph / 11.1 km/h - 0.01 in / 0.3 cm Snow Light Snow
12:05 PM 28.9°F -1.7°C 25.0°F -3.9°C 85% 29.86 in / 1011.1 hPa 1.2 miles / 2.0 kilometers North 5.8 mph / 9.3 km/h - 0.00 in / 0.0 cm Snow Light Snow
12:14 PM 28.9°F -1.7°C 26.1°F -3.3°C 89% 29.86 in / 1011.1 hPa 1.0 miles / 1.6 kilometers North 4.6 mph / 7.4 km/h - 0.00 in / 0.0 cm Snow Light Snow
12:25 PM 28.9°F -1.7°C 26.1°F -3.3°C 89% 29.84 in / 1010.4 hPa 0.8 miles / 1.2 kilometers North 4.6 mph / 7.4 km/h - 0.01 in / 0.3 cm Snow Light Snow
12:54 PM 28.9°F -1.7°C 26.1°F -3.3°C 89% 29.83 in / 1010.1 hPa 0.5 miles / 0.8 kilometers North 5.8 mph / 9.3 km/h - 0.02 in / 0.5 cm Fog , Snow Snow
1:54 PM 28.9°F -1.7°C 26.1°F -3.3°C 89% 29.80 in / 1008.9 hPa 0.5 miles / 0.8 kilometers North 4.6 mph / 7.4 km/h - 0.04 in / 1.0 cm Fog , Snow Snow
2:31 PM 28.9°F -1.7°C 27.0°F -2.8°C 92% 29.77 in / 1008.0 hPa 0.2 miles / 0.4 kilometers NNE 3.5 mph / 5.6 km/h - 0.03 in / 0.8 cm Fog , Snow Snow
2:42 PM 28.9°F -1.7°C 26.1°F -3.3°C 89% 29.78 in / 1008.4 hPa 0.5 miles / 0.8 kilometers NNE 6.9 mph / 11.1 km/h - 0.04 in / 1.0 cm Fog , Snow Snow
2:54 PM 28.9°F -1.7°C 26.1°F -3.3°C 89% 29.78 in / 1008.5 hPa 0.5 miles / 0.8 kilometers NNE 5.8 mph / 9.3 km/h - 0.04 in / 1.0 cm Fog , Snow Snow
3:13 PM 28.9°F -1.7°C 27.0°F -2.8°C 92% 29.77 in / 1008.0 hPa 0.5 miles / 0.8 kilometers NNE 5.8 mph / 9.3 km/h - 0.01 in / 0.3 cm Fog , Snow Snow
3:47 PM 28.9°F -1.7°C 26.1°F -3.3°C 89% 29.76 in / 1007.7 hPa 1.0 miles / 1.6 kilometers NNE 4.6 mph / 7.4 km/h - 0.02 in / 0.5 cm Snow Light Snow
3:54 PM 28.9°F -1.7°C 26.1°F -3.3°C 89% 29.78 in / 1008.3 hPa 0.8 miles / 1.2 kilometers NNE 4.6 mph / 7.4 km/h - 0.02 in / 0.5 cm Snow Light Snow
4:13 PM 28.0°F -2.2°C 26.1°F -3.3°C 92% 29.77 in / 1008.0 hPa 1.2 miles / 2.0 kilometers North 4.6 mph / 7.4 km/h - 0.01 in / 0.3 cm Snow Light Snow
4:54 PM 28.0°F -2.2°C 26.1°F -3.3°C 92% 29.77 in / 1008.0 hPa 3.0 miles / 4.8 kilometers North 8.1 mph / 13.0 km/h - 0.02 in / 0.5 cm Snow Light Snow
5:09 PM 28.9°F -1.7°C 26.1°F -3.3°C 89% 29.75 in / 1007.3 hPa 2.5 miles / 4.0 kilometers North 9.2 mph / 14.8 km/h - 0.00 in / 0.0 cm Snow Light Snow
5:42 PM 28.0°F -2.2°C 26.1°F -3.3°C 92% 29.74 in / 1007.0 hPa 3.0 miles / 4.8 kilometers North 5.8 mph / 9.3 km/h - 0.01 in / 0.3 cm Snow Light Snow
5:54 PM 28.0°F -2.2°C 26.1°F -3.3°C 92% 29.75 in / 1007.5 hPa 3.0 miles / 4.8 kilometers North 5.8 mph / 9.3 km/h - 0.01 in / 0.3 cm Snow Light Snow
6:09 PM 28.0°F -2.2°C 26.1°F -3.3°C 92% 29.74 in / 1007.0 hPa 2.5 miles / 4.0 kilometers NNE 4.6 mph / 7.4 km/h - 0.00 in / 0.0 cm Snow Light Snow
6:36 PM 28.0°F -2.2°C 26.1°F -3.3°C 92% 29.74 in / 1007.0 hPa 4.0 miles / 6.4 kilometers North 4.6 mph / 7.4 km/h - 0.01 in / 0.3 cm Snow Light Snow
6:54 PM 28.0°F -2.2°C 26.1°F -3.3°C 92% 29.74 in / 1007.0 hPa 6.0 miles / 9.7 kilometers North 3.5 mph / 5.6 km/h - 0.01 in / 0.3 cm Snow Light Snow
7:54 PM 28.0°F -2.2°C 26.1°F -3.3°C 92% 29.73 in / 1006.7 hPa 10.0 miles / 16.1 kilometers North 3.5 mph / 5.6 km/h - 0.00 in / 0.0 cm   Overcast
8:54 PM 28.0°F -2.2°C 25.0°F -3.9°C 88% 29.74 in / 1006.9 hPa 3.0 miles / 4.8 kilometers Calm Calm - 0.00 in / 0.0 cm Snow Light Snow
9:15 PM 28.0°F -2.2°C 27.0°F -2.8°C 96% 29.72 in / 1006.3 hPa 1.8 miles / 2.8 kilometers Calm Calm - 0.00 in / 0.0 cm Snow Light Snow
9:24 PM 28.0°F -2.2°C 27.0°F -2.8°C 96% 29.72 in / 1006.3 hPa 1.5 miles / 2.4 kilometers Calm Calm - 0.00 in / 0.0 cm Snow Light Snow
9:31 PM 28.0°F -2.2°C 27.0°F -2.8°C 96% 29.72 in / 1006.3 hPa 2.0 miles / 3.2 kilometers Calm Calm - 0.00 in / 0.0 cm Snow Light Snow
9:54 PM 28.0°F -2.2°C 27.0°F -2.8°C 96% 29.73 in / 1006.7 hPa 2.0 miles / 3.2 kilometers Calm Calm - 0.01 in / 0.3 cm Snow Light Snow
10:09 PM 28.0°F -2.2°C 26.1°F -3.3°C 92% 29.72 in / 1006.3 hPa 1.8 miles / 2.8 kilometers Calm Calm - 0.00 in / 0.0 cm Snow Light Snow
10:20 PM 28.0°F -2.2°C 26.1°F -3.3°C 92% 29.72 in / 1006.3 hPa 2.0 miles / 3.2 kilometers Calm Calm - 0.00 in / 0.0 cm Snow Light Snow
10:36 PM 27.0°F -2.8°C 25.0°F -3.9°C 92% 29.71 in / 1006.0 hPa 3.0 miles / 4.8 kilometers Calm Calm - 0.00 in / 0.0 cm Snow Light Snow
10:54 PM 27.0°F -2.8°C 26.1°F -3.3°C 96% 29.73 in / 1006.5 hPa 3.0 miles / 4.8 kilometers Calm Calm - 0.00 in / 0.0 cm Snow Light Snow
11:19 PM 27.0°F -2.8°C 26.1°F -3.3°C 96% 29.71 in / 1006.0 hPa 5.0 miles / 8.0 kilometers West 3.5 mph / 5.6 km/h - 0.00 in / 0.0 cm   Mostly Cloudy
11:28 PM 27.0°F -2.8°C 26.1°F -3.3°C 96% 29.71 in / 1006.0 hPa 5.0 miles / 8.0 kilometers West 3.5 mph / 5.6 km/h - 0.00 in / 0.0 cm   Overcast
11:54 PM 28.0°F -2.2°C 26.1°F -3.3°C 92% 29.72 in / 1006.4 hPa 8.0 miles / 12.9 kilometers WSW 3.5 mph / 5.6 km/h - 0.00 in / 0.0 cm   Overcast